Location: ROBOsky.com Wild Flower Ridge Observatory
(43.9736°N, 79.9739°W)
Time: 19:37:25
(UTC-04:00)

USA 129 - Visible Passes

Search period start: 22 July 2014 00:00
Search period end: 01 August 2014 00:00
Orbit: 241 x 674 km, 97.5° (Epoch: 24 April)

Date Brightness Start Highest point End Pass type
(mag) Time Alt. Az. Time Alt. Az. Time Alt. Az.
22 Jul 3.7 21:58:58 14° SE 22:02:01 49° ENE 22:06:00 10° N visible
22 Jul 5.8 23:32:26 10° WSW 23:34:30 14° W 23:36:39 10° NW visible
23 Jul 4.2 22:47:34 18° SSW 22:50:07 44° W 22:54:05 10° NNW visible
24 Jul 3.6 22:03:01 16° SSE 22:06:01 55° ENE 22:10:07 10° N visible
24 Jul 5.9 23:36:36 10° WSW 23:38:31 13° W 23:40:31 10° WNW visible
25 Jul 4.4 22:51:22 18° SSW 22:53:53 41° W 22:57:51 10° NNW visible
26 Jul 3.5 22:06:35 17° SSE 22:09:31 60° ENE 22:13:41 10° N visible
26 Jul 6.0 23:40:14 10° WSW 23:42:02 13° W 23:43:51 10° WNW visible
27 Jul 5.0 21:22:22 10° ESE 21:25:23 21° ENE 21:28:31 10° NNE visible
27 Jul 4.6 22:54:41 19° SSW 22:57:09 38° W 23:01:06 10° NNW visible
28 Jul 3.5 22:09:39 19° SSE 22:12:30 64° ENE 22:16:43 10° N visible
28 Jul 6.1 23:43:23 10° WSW 23:45:01 12° W 23:46:41 10° WNW visible
29 Jul 5.0 21:24:56 10° ESE 21:28:06 22° ENE 21:31:21 10° NNE visible
29 Jul 4.7 22:57:30 19° SSW 22:59:53 36° W 23:03:49 10° NNW visible
30 Jul 3.5 22:12:14 20° SSE 22:14:59 68° ENE 22:19:13 10° N visible
30 Jul 6.1 23:45:59 10° WSW 23:47:29 12° W 23:48:59 10° WNW visible
31 Jul 4.9 21:27:02 10° ESE 21:30:18 23° ENE 21:33:38 10° NNE visible
31 Jul 4.7 22:59:50 20° SSW 23:02:06 35° W 23:06:01 10° NNW visible
